Estación de Los Colihues
Ultimos registro cada 15 minutos 94
| N° | Estación | Fecha / Hora | Temperatura | Humedad | Lluvia | Velocidad | Dirección | Radiación | Presion |
| 94 | Los Colihues | 04-09-2026 23:15 | 7,8 | 78,7 | 0 | 1 | 198 | 0,6 | 1016,1 |
| 93 | Los Colihues | 04-09-2026 23:00 | 7,9 | 77,9 | 0 | 1,5 | 192 | 0,6 | 1016,1 |
| 92 | Los Colihues | 04-09-2026 22:45 | 7,9 | 77,6 | 0 | 1 | 194 | 0,6 | 1016,2 |
| 91 | Los Colihues | 04-09-2026 22:30 | 7,8 | 78 | 0 | 0,5 | 191 | 0,6 | 1016,2 |
| 90 | Los Colihues | 04-09-2026 22:15 | 8 | 76,8 | 0 | 0,5 | 195 | 0,6 | 1016,3 |
| 89 | Los Colihues | 04-09-2026 22:00 | 7,9 | 76,9 | 0 | 0 | 213 | 0,6 | 1016,2 |
| 88 | Los Colihues | 04-09-2026 21:45 | 7,8 | 77,4 | 0 | 0 | 190 | 0,6 | 1016 |
| 87 | Los Colihues | 04-09-2026 21:30 | 7,8 | 77,8 | 0 | 0 | 225 | 0,6 | 1016,1 |
| 86 | Los Colihues | 04-09-2026 21:15 | 8 | 76,9 | 0 | 0 | 202 | 0,6 | 1015,9 |
| 85 | Los Colihues | 04-09-2026 21:00 | 8,5 | 75,2 | 0 | 0 | 218 | 0,6 | 1016,1 |
| 84 | Los Colihues | 04-09-2026 20:45 | 8,4 | 76 | 0 | 0 | 240 | 0,6 | 1016 |
| 83 | Los Colihues | 04-09-2026 20:30 | 8,9 | 74,2 | 0 | 0 | 225 | 0,6 | 1016 |
| 82 | Los Colihues | 04-09-2026 20:15 | 9,6 | 71,6 | 0 | 1 | 208 | 0,6 | 1016 |
| 81 | Los Colihues | 04-09-2026 20:00 | 9,7 | 72,1 | 0 | 1 | 202 | 0,6 | 1016 |
| 80 | Los Colihues | 04-09-2026 19:45 | 9,8 | 71,7 | 0 | 0,5 | 205 | 0,6 | 1015,6 |
| 79 | Los Colihues | 04-09-2026 19:30 | 10,4 | 70 | 0 | 1 | 199 | 0,6 | 1015,5 |
| 78 | Los Colihues | 04-09-2026 19:15 | 10,6 | 68,5 | 0 | 1 | 205 | 0,6 | 1015,4 |
| 77 | Los Colihues | 04-09-2026 19:00 | 11,1 | 67,2 | 0 | 1 | 202 | 0,6 | 1015,2 |
| 76 | Los Colihues | 04-09-2026 18:45 | 11,5 | 65,6 | 0 | 1 | 202 | 0,6 | 1015,2 |
| 75 | Los Colihues | 04-09-2026 18:30 | 11,8 | 64 | 0 | 1,5 | 199 | 4,4 | 1015 |
| 74 | Los Colihues | 04-09-2026 18:15 | 12,6 | 61,2 | 0 | 2 | 198 | 11,9 | 1014,9 |
| 73 | Los Colihues | 04-09-2026 18:00 | 13,1 | 58,8 | 0 | 2 | 198 | 34,4 | 1014,8 |
| 72 | Los Colihues | 04-09-2026 17:45 | 13,7 | 57,8 | 0 | 2 | 198 | 90,6 | 1014,6 |
| 71 | Los Colihues | 04-09-2026 17:30 | 14,1 | 57,3 | 0 | 2 | 194 | 136,9 | 1014,6 |
| 70 | Los Colihues | 04-09-2026 17:15 | 14,5 | 55,4 | 0 | 2 | 201 | 179,4 | 1014,4 |
| 69 | Los Colihues | 04-09-2026 17:00 | 14,9 | 55,4 | 0 | 1,5 | 194 | 221,9 | 1014,4 |
| 68 | Los Colihues | 04-09-2026 16:45 | 15 | 55,2 | 0 | 3 | 184 | 268,1 | 1014,6 |
| 67 | Los Colihues | 04-09-2026 16:30 | 15,1 | 53,7 | 0 | 2 | 197 | 311,9 | 1014,5 |
| 66 | Los Colihues | 04-09-2026 16:15 | 15,2 | 55,5 | 0 | 2 | 204 | 356,9 | 1014,4 |
| 65 | Los Colihues | 04-09-2026 16:00 | 15,3 | 52,5 | 0 | 2 | 194 | 401,9 | 1014,5 |
| 64 | Los Colihues | 04-09-2026 15:45 | 15 | 51,1 | 0 | 2,5 | 204 | 444,4 | 1014,4 |
| 63 | Los Colihues | 04-09-2026 15:30 | 15,1 | 53,1 | 0 | 2,5 | 187 | 481,9 | 1014,3 |
| 62 | Los Colihues | 04-09-2026 15:15 | 15,4 | 54,8 | 0 | 2,5 | 191 | 515,6 | 1014,3 |
| 61 | Los Colihues | 04-09-2026 15:00 | 15 | 51,8 | 0 | 2,5 | 194 | 549,4 | 1014,3 |
| 60 | Los Colihues | 04-09-2026 14:45 | 14,9 | 54,9 | 0 | 2 | 209 | 576,9 | 1014,4 |
| 59 | Los Colihues | 04-09-2026 14:30 | 15 | 52,9 | 0 | 2,5 | 192 | 606,9 | 1014,4 |
| 58 | Los Colihues | 04-09-2026 14:15 | 14,2 | 57,8 | 0 | 2,5 | 201 | 629,4 | 1014,5 |
| 57 | Los Colihues | 04-09-2026 14:00 | 14 | 59,3 | 0 | 2,5 | 206 | 650,6 | 1014,6 |
| 56 | Los Colihues | 04-09-2026 13:45 | 13,8 | 58,7 | 0 | 2,5 | 199 | 665,6 | 1014,7 |
| 55 | Los Colihues | 04-09-2026 13:30 | 13,9 | 60,2 | 0 | 2,5 | 201 | 676,9 | 1014,9 |
| 54 | Los Colihues | 04-09-2026 13:15 | 13,7 | 59,2 | 0 | 2,5 | 201 | 688,1 | 1014,9 |
| 53 | Los Colihues | 04-09-2026 13:00 | 13,5 | 59,9 | 0 | 2,5 | 192 | 693,1 | 1014,9 |
| 52 | Los Colihues | 04-09-2026 12:45 | 13,3 | 58,6 | 0 | 2,5 | 198 | 694,4 | 1014,9 |
| 51 | Los Colihues | 04-09-2026 12:30 | 12,7 | 59,9 | 0 | 2,5 | 194 | 694,4 | 1015,2 |
| 50 | Los Colihues | 04-09-2026 12:15 | 12,5 | 60,3 | 0 | 3 | 194 | 688,1 | 1015,4 |
| 49 | Los Colihues | 04-09-2026 12:00 | 12,4 | 59,7 | 0 | 3 | 194 | 683,1 | 1015,5 |
| 48 | Los Colihues | 04-09-2026 11:45 | 11,9 | 62,9 | 0 | 3 | 206 | 670,6 | 1015,4 |
| 47 | Los Colihues | 04-09-2026 11:30 | 11,9 | 62,9 | 0 | 2,5 | 195 | 653,1 | 1015,6 |
| 46 | Los Colihues | 04-09-2026 11:15 | 11,7 | 63,6 | 0 | 2,5 | 190 | 633,1 | 1015,8 |
| 45 | Los Colihues | 04-09-2026 11:00 | 11 | 67,9 | 0 | 3 | 194 | 608,1 | 1016,1 |
| 44 | Los Colihues | 04-09-2026 10:45 | 11,1 | 67,6 | 0 | 2,5 | 198 | 561,9 | 1016,3 |
| 43 | Los Colihues | 04-09-2026 10:30 | 10,2 | 68,3 | 0 | 2,5 | 208 | 556,9 | 1016,1 |
| 42 | Los Colihues | 04-09-2026 10:15 | 10 | 72,5 | 0 | 2,5 | 187 | 524,4 | 1016,1 |
| 41 | Los Colihues | 04-09-2026 10:00 | 9,8 | 73,6 | 0 | 1,5 | 199 | 489,4 | 1016,3 |
| 40 | Los Colihues | 04-09-2026 09:45 | 9,3 | 75 | 0 | 1 | 202 | 451,9 | 1016,3 |
| 39 | Los Colihues | 04-09-2026 09:30 | 8,3 | 78,2 | 0 | 2 | 202 | 410,6 | 1016,3 |
| 38 | Los Colihues | 04-09-2026 09:15 | 8 | 80 | 0 | 1,5 | 199 | 369,4 | 1016,2 |
| 37 | Los Colihues | 04-09-2026 09:00 | 7,5 | 82,2 | 0 | 1,5 | 206 | 324,4 | 1016,3 |
| 36 | Los Colihues | 04-09-2026 08:45 | 6,6 | 84,1 | 0 | 1 | 204 | 279,4 | 1016,5 |
| 35 | Los Colihues | 04-09-2026 08:30 | 6 | 85,8 | 0 | 0,5 | 197 | 235,6 | 1016,7 |
| 34 | Los Colihues | 04-09-2026 08:15 | 5,5 | 88 | 0 | 0 | 227 | 196,9 | 1016,7 |
| 33 | Los Colihues | 04-09-2026 08:00 | 4,9 | 88,7 | 0 | 0 | 246 | 161,9 | 1016,7 |
| 32 | Los Colihues | 04-09-2026 07:45 | 4,4 | 90,2 | 0 | 0 | 241 | 116,9 | 1016,4 |
| 31 | Los Colihues | 04-09-2026 07:30 | 3,9 | 93 | 0 | 0 | 241 | 60,6 | 1016,8 |
| 30 | Los Colihues | 04-09-2026 07:15 | 2,9 | 95,3 | 0 | 0 | 229 | 10,6 | 1017 |
| 29 | Los Colihues | 04-09-2026 07:00 | 2,8 | 95,1 | 0 | 0 | 254 | 1,9 | 1017,1 |
| 28 | Los Colihues | 04-09-2026 06:45 | 3,3 | 94,2 | 0 | 0 | 251 | 0,6 | 1017,1 |
| 27 | Los Colihues | 04-09-2026 06:30 | 3,4 | 94,3 | 0 | 0 | 236 | 0,6 | 1016,9 |
| 26 | Los Colihues | 04-09-2026 06:15 | 3,3 | 94,8 | 0 | 0 | 240 | 0,6 | 1016,9 |
| 25 | Los Colihues | 04-09-2026 06:00 | 2,8 | 96 | 0 | 0 | 246 | 0,6 | 1017 |
| 24 | Los Colihues | 04-09-2026 05:45 | 2,7 | 95,2 | 0 | 0 | 247 | 0,6 | 1017 |
| 23 | Los Colihues | 04-09-2026 05:30 | 3 | 94,5 | 0 | 0 | 247 | 0,6 | 1016,7 |
| 22 | Los Colihues | 04-09-2026 05:15 | 3,1 | 94,4 | 0 | 0 | 247 | 0,6 | 1016,7 |
| 21 | Los Colihues | 04-09-2026 05:00 | 3,3 | 93,6 | 0 | 0 | 248 | 0,6 | 1016,8 |
| 20 | Los Colihues | 04-09-2026 04:45 | 3,6 | 93,2 | 0 | 0 | 244 | 0,6 | 1016,6 |
| 19 | Los Colihues | 04-09-2026 04:30 | 3,3 | 93,7 | 0 | 0 | 248 | 0,6 | 1016,6 |
| 18 | Los Colihues | 04-09-2026 04:15 | 3,4 | 92,9 | 0 | 0 | 248 | 0,6 | 1016,5 |
| 17 | Los Colihues | 04-09-2026 04:00 | 3,9 | 91,6 | 0 | 0 | 247 | 0,6 | 1016,5 |
| 16 | Los Colihues | 04-09-2026 03:45 | 4 | 91,3 | 0 | 0 | 198 | 0,6 | 1016,7 |
| 15 | Los Colihues | 04-09-2026 03:30 | 4,1 | 90,6 | 0 | 0 | 202 | 0,6 | 1016,7 |
| 14 | Los Colihues | 04-09-2026 03:15 | 4,3 | 90,3 | 0 | 0 | 229 | 0,6 | 1016,9 |
| 13 | Los Colihues | 04-09-2026 03:00 | 4,6 | 89 | 0 | 0 | 229 | 0,6 | 1017 |
| 12 | Los Colihues | 04-09-2026 02:45 | 4,8 | 88,4 | 0 | 0 | 198 | 0,6 | 1017,2 |
| 11 | Los Colihues | 04-09-2026 02:30 | 5,1 | 87,1 | 0 | 0,5 | 201 | 0,6 | 1017,4 |
| 10 | Los Colihues | 04-09-2026 02:15 | 5,4 | 86,1 | 0 | 1 | 202 | 0,6 | 1017,4 |
| 9 | Los Colihues | 04-09-2026 02:00 | 5,7 | 85,1 | 0 | 1 | 195 | 0,6 | 1017,2 |
| 8 | Los Colihues | 04-09-2026 01:45 | 5,8 | 84,6 | 0 | 0,5 | 195 | 0,6 | 1017,1 |
| 7 | Los Colihues | 04-09-2026 01:30 | 5,8 | 84,1 | 0 | 0,5 | 198 | 0,6 | 1017,3 |
| 6 | Los Colihues | 04-09-2026 01:15 | 6,1 | 83 | 0 | 1 | 194 | 0,6 | 1017,4 |
| 5 | Los Colihues | 04-09-2026 01:00 | 6,1 | 82,6 | 0 | 1 | 195 | 0,6 | 1017,5 |
| 4 | Los Colihues | 04-09-2026 00:45 | 6,3 | 82,3 | 0 | 0,5 | 195 | 0,6 | 1017,6 |
| 3 | Los Colihues | 04-09-2026 00:30 | 6,6 | 81,8 | 0 | 0,5 | 199 | 0,6 | 1017,7 |
| 2 | Los Colihues | 04-09-2026 00:15 | 6,2 | 84,1 | 0 | 0 | 212 | 0,6 | 1017,5 |
| 1 | Los Colihues | 04-09-2026 00:00 | 5,8 | 86,1 | 0 | 0 | 190 | 0,6 | 1017,6 |